map of MLX home
MLX - Airport
Location
City:  Malatya, Malatya, Turkey
Name:Erhac
ICAO:LTAT
IATA:MLX

Details
Type:Airport (Aerodrome, Airfield)
Use:Public/Civil, Military
Latitude:3826'07"N (38.435347)
Longitude:3805'28"E (38.091006)
Datum:WGS 1984
Elevation:2828 ft (862 m)
Variation:5.70E (WMM2015 magnetic declination)
0.08 annual change
Runways:1
Longest:10990 × 148 ft (3350 × 45 m), paved

Time
Time Zone:UTC+3
Local Time:

Weather
METAR:LTAT 141450Z 13004KT 080V180 2500 BR VV003 01/01 Q1020 NOSIG RMK RWY03 VRB02KT
TAF:LTAT 131640Z 1318/1418 VRB02KT 6000 NSC
TEMPO 1318/1322 4000 BR PROB40
TEMPO 1400/1404 2000 BR PROB40
TEMPO 1404/1408 1000 BCFG
BECMG 1407/1409 SCT040 BKN100

Related Locations
Nearby:
Farthest:RVV: 11373 mi / 18303 km
Raivavae, Tubuai Islands, Austral Islands, PF

Find:

   beyond  
but within

Other Information
Maps:
NOTAMs:
Links:
Sources:

  
flag of Turkey   

Sectional Chart

Flight Planning
at skyvector.com

Satellite Image

Google Maps Satellite view

 

Copyright © 2004-2017 Karl L. Swartz. All rights reserved.
The Great Circle Mapper name and logo are trademarks of the Great Circle Mapper.
All other trademarks mentioned herein belong to their respective owners.
Please see credits for attibutions and further copyright information.

  Follow gcmap on Facebook Follow gcmap on Twitter Follow gcmap on Google+ GCmap on LinkedIn

hCard Microformat

Geo Microformat